Regional Weather Roundup
Issued by NWS Mobile, AL

Current Version |  Previous Version |  Text Only |  Print | Product List |  Glossary On
Versions: 1 2 3 4 5 6 7 8 9 10 11 12 13 14 15 16 17 18 19 20 21 22 23 24 25 26 27 28
806
ASUS44 KMOB 211710
RWRMOB
REGIONAL WEATHER ROUNDUP
NATIONAL WEATHER SERVICE MOBILE AL
1200 PM CDT TUE MAY 21 2024

NOTE: "FAIR" INDICATES FEW OR NO CLOUDS BELOW 12,000 FEET WITH NO
      SIGNIFICANT WEATHER AND/OR OBSTRUCTIONS TO VISIBILITY.

  * THESE STATIONS ARE PART OF THE UNIVERSITY OF SOUTH ALABAMA
    MESONET AND ARE NOT UNDER NWS OR FAA QUALITY CONTROL.

ALZ061>064-211800-
COASTAL ALABAMA

CITY           SKY/WX    TMP DP  RH WIND       PRES   REMARKS
MOBILE REG APT PTSUNNY   84  65  52 VRB6      30.00S
BROOKLEY FIELD MOSUNNY   84  63  49 VRB3      30.01R
USA CAMPUS*    NOT AVBL
DOG RIVER*       N/A     81  70  69 SE5       30.00S


CITY           SKY/WX    TMP DP  RH WIND       PRES   REMARKS
GULF SHORES    PTSUNNY   81  70  69 E10       29.99

$$

ALZ051>060-211800-
INTERIOR SOUTHWEST AND SOUTH CENTRAL ALABAMA

CITY           SKY/WX    TMP DP  RH WIND       PRES   REMARKS
GREENVILLE     MOSUNNY   80  62  54 SE8       30.02S
EVERGREEN      MOSUNNY   83  62  49 SE7       30.01S
ATMORE*          N/A     81  64  57 E6        30.02S
ANDALUSIA/OPP  MOSUNNY   81  62  52 E9        30.01F
ANDALUSIA*       N/A     81  64  57 NE3       30.03S
FLORALA APT    MOSUNNY   82  61  48 MISG      30.03S
FLORALA*         N/A     81  68  65 S5        30.05S

$$

FLZ001>006-211800-
WESTERN FLORIDA PANHANDLE

CITY           SKY/WX    TMP DP  RH WIND       PRES   REMARKS
PENSACOLA      SUNNY     81  63  54 E13       29.99F
NAS PENSACOLA  PTSUNNY   85  70  60 SE12      29.98F
MILTON         PTSUNNY   81  62  52 SE10      29.99F
WHTNG S FIELD  PTSUNNY   81  62  52 E9        29.99F


CITY           SKY/WX    TMP DP  RH WIND       PRES   REMARKS
JAY*             N/A     82  63  51 SE8       30.01S
CRESTVIEW      PTSUNNY   83  62  49 MISG      30.01F
VALPARAISO     NOT AVBL
DESTIN         SUNNY     81  68  64 SE8       29.99F

$$

MSZ076-079-211800-
INTERIOR SOUTHEAST MISSISSIPPI

CITY           SKY/WX    TMP DP  RH WIND       PRES   REMARKS
LEAKESVILLE*     N/A     82  66  57 SE3       30.01
AGRICOLA*        N/A     82  70  65 E2        30.00

$$

MARINE OBSERVATIONS

STATION/POSITION TIME  TEMP    WIND        PRES    WAVE
                       AIR SEA DIR/SP/G            HT/PER
                 (UTC) (F)     (DEG/KT/KT) (MB)    (FT/S)
PETIT BOIS ISLND 1630   80      90/  9/ 11 1015.5R
GRAND BAY        1530   78     100/  9     1016.0S
CEDAR POINT      1500   81                 1028.8
E DAUPHIN ISLAND NOT AVBL
USCG MOBILE BAY  1630   79 81  150/  3/  5 1015.7R
STATE DOCKS      1630   80 78              1016.6R
WEEKS BAY        1545   81     130/  3     1016.0S
12 S ORANGE BCH  1650   78 80  100/ 12/ 14 1015.7R   2/ 3
PENSACOLA BAY    1630   86      CALM  /  6 1015.9F
64 S DAUPHIN ISL 1650   79     100/ 12/ 14 1015.4R   2/ 3

$$

SELECTED LOCATIONS ACROSS THE REGION

CITY           SKY/WX    TMP DP  RH WIND       PRES   REMARKS
NEW ORLEANS    PTSUNNY   87  69  54 SE14      29.96S
GULFPORT         N/A    N/A N/A N/A S10       29.98R
PASCAGOULA AP    N/A     85  67  54 SE8       29.99R
PASCAGOULA*      N/A     79  70  73 E5        29.98
HATTIESBURG    MOSUNNY   85  64  49 E9G16     29.99F
LAUREL         MOSUNNY   83  65  54 E8        30.01S
MERIDIAN       SUNNY     84  63  49 SE6       30.00S
JACKSON        PTSUNNY   85  70  60 S10G24    29.97S
MONTGOMERY     SUNNY     84  63  49 SE9G18    30.02F
TROY           MOSUNNY   83  63  50 NE6       30.03F
ASHFORD*         N/A     81  64  57 NE3       30.03S
DOTHAN         PTSUNNY   80  63  55 E6        30.04F
PANAMA CITY    MOSUNNY   81  64  57 E8        29.98F

$$